Ridgedale, MO

12:00 PM CST on February 22, 2017 (GMT -0600)
Branson

Weather History for KBBG - December, 2012

Change the Weather History Date:

Tuesday, December 11, 2012

  Actual Average (KHRO) Record (KHRO)
Temperature  
Mean Temperature 32 °F -  
Max Temperature 44 °F 49 °F 80 °F (1929)
Min Temperature 21 °F 29 °F 3 °F (1917)
Degree Days  
Heating Degree Days 32    
Moisture  
Dew Point 14 °F    
Average Humidity 56    
Maximum Humidity 86    
Minimum Humidity 23    
Precipitation  
Precipitation 0.00 in - - ()
Sea Level Pressure  
Sea Level Pressure 30.13 in    
Wind  
Wind Speed 2 mph (SW)    
Max Wind Speed 12 mph    
Max Gust Speed -    
Visibility 10 miles    
Events      
Averages and records for this station are not official NWS values.
T = Trace of Precipitation, MM = Missing Value Source: NWS Daily Summary

Daily Weather History Graph

Daily Weather History Graph

Search for Another Location

Airport or City:

Trip Planner

Search our weather history database for the weather conditions in past years. The results will help you decide how hot, cold, wet, or windy it might be!

Date:

Astronomy

Dec. 11, 2012 Rise Set
Actual Time 7:15 AM CST 4:57 PM CST
Civil Twilight 6:46 AM CST 5:26 PM CST
Nautical Twilight 6:14 AM CST 5:58 PM CST
Astronomical Twilight 5:42 AM CST 6:29 PM CST
Moon 5:12 AM CST (12/11) 3:36 PM CST (12/11)
Length of Visible Light 10h 40m
Length of Day
9h 42m
Waning Crescent, 4% of the Moon is Illuminated
Dec 11
Waning Crescent
Dec 13
New
Dec 19
First Quarter
Dec 28
Full
Jan 4
Last Quarter

Hourly Weather History & Observations

Time (CST) Temp. Windchill Dew Point Humidity Pressure Visibility Wind Dir Wind Speed Gust Speed Precip Events Conditions
12:15 AM 23.0 °F - 17.6 °F 80% 30.08 in 10.0 mi Calm Calm - N/A   Clear
12:55 AM 23.0 °F - 17.6 °F 80% 30.08 in 10.0 mi Calm Calm - N/A   Clear
1:15 AM 23.0 °F - 17.6 °F 80% 30.08 in 10.0 mi Calm Calm - N/A   Clear
1:35 AM 23.0 °F - 17.6 °F 80% 30.08 in 10.0 mi Calm Calm - N/A   Clear
1:55 AM 23.0 °F - 17.6 °F 80% 30.08 in 10.0 mi Calm Calm - N/A   Clear
2:15 AM 23.0 °F - 17.6 °F 80% 30.08 in 10.0 mi Calm Calm - N/A   Clear
2:35 AM 23.0 °F - 17.6 °F 80% 30.08 in 10.0 mi Calm Calm - N/A   Clear
2:55 AM 23.0 °F - 17.6 °F 80% 30.08 in 10.0 mi Calm Calm - N/A   Clear
3:15 AM 23.0 °F - 17.6 °F 80% 30.08 in 10.0 mi Calm Calm - N/A   Clear
3:35 AM 23.0 °F - 17.6 °F 80% 30.08 in 10.0 mi Calm Calm - N/A   Clear
3:55 AM 23.0 °F - 17.6 °F 80% 30.07 in 10.0 mi Calm Calm - N/A   Clear
4:15 AM 23.0 °F - 17.6 °F 80% 30.07 in 10.0 mi Calm Calm - N/A   Clear
4:35 AM 21.2 °F - 17.6 °F 86% 30.07 in 10.0 mi Calm Calm - N/A   Clear
4:55 AM 21.2 °F - 17.6 °F 86% 30.07 in 10.0 mi Calm Calm - N/A   Clear
5:15 AM 21.2 °F - 17.6 °F 86% 30.08 in 10.0 mi Calm Calm - N/A   Clear
5:35 AM 21.2 °F - 15.8 °F 80% 30.08 in 10.0 mi Calm Calm - N/A   Clear
6:47 AM 21.2 °F 14.9 °F 15.8 °F 80% 30.10 in 10.0 mi SSW 4.6 mph - N/A   Clear
8:48 AM 26.6 °F 21.2 °F 15.8 °F 64% 30.14 in 10.0 mi SW 4.6 mph - N/A   Clear
9:48 AM 32.0 °F 25.6 °F 14.0 °F 48% 30.16 in 10.0 mi SSW 6.9 mph - N/A   Clear
10:53 AM 35.6 °F 29.9 °F 14.0 °F 41% 30.16 in 10.0 mi SSW 6.9 mph - N/A   Clear
11:57 AM 39.2 °F 35.0 °F 15.8 °F 39% 30.14 in 10.0 mi SW 5.8 mph - N/A   Clear
12:51 PM 42.8 °F 39.3 °F 10.4 °F 27% 30.12 in 10.0 mi SW 5.8 mph - N/A   Clear
1:45 PM 44.6 °F 42.2 °F 8.6 °F 23% 30.10 in 10.0 mi SSW 4.6 mph - N/A   Clear
2:50 PM 44.6 °F 40.7 °F 8.6 °F 23% 30.10 in 10.0 mi SW 6.9 mph - N/A   Clear
3:50 PM 44.6 °F 41.4 °F 8.6 °F 23% 30.10 in 10.0 mi SW 5.8 mph - N/A   Clear
4:51 PM 41.0 °F 37.1 °F 6.8 °F 24% 30.11 in 10.0 mi SW 5.8 mph - N/A   Clear
6:56 PM 39.2 °F 32.0 °F 6.8 °F 26% 30.14 in 10.0 mi SW 11.5 mph - N/A   Clear
7:58 PM 37.4 °F - 6.8 °F 28% 30.16 in 10.0 mi Calm Calm - N/A   Clear
8:15 PM 35.6 °F - 6.8 °F 30% 30.17 in 10.0 mi Calm Calm - N/A   Clear
8:35 PM 35.6 °F 31.7 °F 8.6 °F 33% 30.18 in 10.0 mi SW 4.6 mph - N/A   Clear
8:50 PM 35.6 °F - 8.6 °F 33% 30.18 in 10.0 mi Calm Calm - N/A   Clear
8:55 PM 35.6 °F 31.7 °F 8.6 °F 33% 30.18 in 10.0 mi SW 4.6 mph - N/A   Clear
9:55 PM 33.8 °F 30.8 °F 12.2 °F 41% 30.20 in 10.0 mi SSW 3.5 mph - N/A   Clear
10:15 PM 33.8 °F - 12.2 °F 41% 30.20 in 10.0 mi Calm Calm - N/A   Clear
10:55 PM 32.0 °F - 12.2 °F 44% 30.21 in 10.0 mi Calm Calm - N/A   Clear
11:15 PM 32.0 °F 28.7 °F 12.2 °F 44% 30.22 in 10.0 mi SSW 3.5 mph - N/A   Clear
11:35 PM 32.0 °F 28.7 °F 10.4 °F 41% 30.22 in 10.0 mi SSW 3.5 mph - N/A   Clear
11:55 PM 32.0 °F 28.7 °F 10.4 °F 41% 30.22 in 10.0 mi SSW 3.5 mph - N/A   Clear